AirNav   Everest Fuels
 
 1060 users online  

50OR Goering Ranches / Chocheta Estates Airport
Bend, Oregon, USA

GOING TO BEND?


FAA INFORMATION EFFECTIVE 26 JANUARY 2023

Location

FAA Identifier: 50OR
Lat/Long: 44-05-50.4410N 120-56-50.0680W
44-05.840683N 120-56.834467W
44.0973447,-120.9472411
(estimated)
Elevation: 3450 ft. / 1051.6 m (surveyed)
Variation: 18E (1985)
From city: 18 miles ENE of BEND, OR
Time zone: UTC -8 (UTC -7 during Daylight Saving Time)
Zip code: 97753

Airport Operations

Airport use: Private use, PERSONAL USE.
Activation date: 07/1984
Control tower: no
ARTCC: SEATTLE CENTER
FSS: MC MINNVILLE FLIGHT SERVICE STATION
Attendance: MON-FRI 24 HOURS/DAY
Wind indicator: yes
Segmented circle: no

Airport Communications

WX AWOS-3 at BDN (11 nm W): 134.425 (541-382-1477)
WX AWOS-3PT at S39 (12 nm N): 118.325 (541-447-4060)
WX ASOS at RDM (13 nm NW): 119.025 (541-504-8743)

Nearby radio navigation aids

VOR radial/distance  VOR name  Freq  Var
DSDr103/17.9DESCHUTES VORTAC117.6018E

Airport Services

Runway Information

Runway 17/35

Dimensions: 5500 x 60 ft. / 1676 x 18 m
Surface: gravel, in good condition
RUNWAY 17  RUNWAY 35
Traffic pattern: leftright
Obstructions: nonefence

Airport Ownership and Management from official FAA records

Ownership: Privately-owned
Owner: LINDA REVOCABLE LIVING TRUST
8101 SW WILLARD ROAD
BEND, OR 97701
Phone (541) 389-3046
Manager: RANDY GOERING
8101 SW WILLARD ROAD
BEND, OR 97701
Phone 541-388-1323
FAX 541-389-7431

Airport Operational Statistics

Aircraft based on the field: 4
Single engine airplanes: 3
Multi engine airplanes: 1
    

Additional Remarks

FOR CD CTC SEATTLE ARTCC AT 253-351-3694.

Instrument Procedures

There are no published instrument procedures at 50OR.

Some nearby airports with instrument procedures:

KBDN - Bend Municipal Airport (11 nm W)
S39 - Prineville Airport (12 nm N)
KRDM - Roberts Field Airport (13 nm NW)
S21 - Sunriver Airport (26 nm SW)
S33 - Madras Municipal Airport (36 nm N)
 
Loc | Ops | Rwys | IFR | FBO | Links
Com | Nav | Svcs | Stats | Notes
Area around 50OR (Goering Ranches / Chocheta Estates Airport)
 
Road maps at: MapQuest Bing Google
 
Aerial photo
WARNING: Photo may not be current or correct
Aerial photo of 50OR (Goering Ranches / Chocheta Estates Airport)
Photo taken 01-Jun-2014

Do you have a better or more recent aerial photo of Goering Ranches / Chocheta Estates Airport that you would like to share? If so, please send us your photo.

 
Sectional chart

 
Airport distance calculator
Flying to Goering Ranches / Chocheta Estates Airport? Find the distance to fly.

From to 50OR

Sunrise and sunset
Times for 28-Jan-2023
 Local
(UTC-8)
 Zulu
(UTC)
Morning civil twilight06:5614:56
Sunrise07:2715:27
Sunset17:0701:07
Evening civil twilight17:3801:38

Current date and time
Zulu (UTC)  29-Jan-2023 00:22:13
Local (UTC-8)  28-Jan-2023 16:22:13
 
METAR
KBDN 
11nm W 
282355Z AUTO 36008KT 10SM SCT085 04/M04 A2992 RMK AO2
KS39 
12nm N 
282355Z AUTO 33006KT 10SM SCT038 BKN049 03/M03 A2991 RMK AO2
KRDM 
13nm NW 
282356Z 35009KT 10SM FEW095 04/M03 A2991 RMK AO2 SLP150 T00441033 10056 20022 56009 $
TAF
KBDN 
11nm W 
282107Z 2821/2918 VRB06KT P6SM SCT100 FM282300 35010G20KT 5SM -SN BKN040 OVC060 FM290100 32012G22KT 4SM -SN BKN020 OVC050 FM290800 33010G20KT P6SM SCT040 BKN090
KRDM 
13nm NW 
282357Z 2900/2924 01007KT P6SM SCT070 BKN100 FM290200 35012G22KT 4SM -SN BKN025 OVC050 FM290800 02010G20KT P6SM SCT050 BKN100 FM291800 03010KT P6SM SCT100
NOTAMs
Click for the latest NOTAMs
NOTAMs are issued by the DoD/FAA and will open in a separate window not controlled by AirNav.

 

 
 

Would you like to see your business listed on this page?

 If your business provides an interesting product or service to pilots, flight crews, aircraft, or users of the Goering Ranches / Chocheta Estates Airport, you should consider listing it here.  To start the listing process, click on the button below
 
Add a business
 

Other Pages about Goering Ranches / Chocheta Estates Airport

Update a link
 
Copyright © AirNav, LLC. All rights reserved. Privacy Policy  Contact